Location: İstanbul
(41.0082°N, 28.9784°E)
Time: 03:48:12
(UTC+02:00)

Oscar 11 - Pass Details

Date: 21 October 2021
Orbit: 614 x 623 km, 97.6° (Epoch: 01 December)

Event Time Altitude Azimuth Distance (km) Brightness Sun altitude
Rises 05:11:28 0° 38° (NE) 2,902 11.2 -25.3°
Maximum altitude 05:16:29 10° 89° (E) 1,991 10.7 -24.4°
Drops below altitude 10° 05:16:35 10° 90° (E) 1,991 10.7 -24.4°
Sets 05:21:28 0° 140° (SE) 2,889 11.0 -23.4°
